{"data":{"norad_id":59256,"epoch":"2026-09-21T10:11:12.474816Z","epoch_age_seconds":82377,"freshness":"FRESH","line1":"1 59256U 24050C   26264.42444994  .00001837  00000+0  70925-4 0  9993","line2":"2 59256  53.1607 350.6083 0001280 103.5107 256.6037 15.31710114140530","mean_motion":15.31710114,"eccentricity":0.000128,"inclination_deg":53.1607,"raan_deg":350.6083,"arg_perigee_deg":103.5107,"mean_anomaly_deg":256.6037,"bstar":7.0925e-5,"rev_number":14053,"period_min":94.012567184759,"perigee_km":469.83319368754,"apogee_km":471.58649848013,"semimajor_km":6848.8468460838,"source":"CELESTRAK","updated_at":"2026-09-22T09:00:48.871204Z"}}